Terug naar catalogus

TITAN 3C TRANSTAGE DEB

ActiefMEO
NORAD 39297·DEBRIS·🇺🇸 United States

Gelanceerd Sep 26, 1968 vanaf Cape Canaveral Space Force Station

Loading…

Volgende Passages (komende 24 uur)

TLE

VersSource: Space-Track

Epoch: Sep 13, 2026, 16:04 UTC

1 39297U 68081AH  26256.66965602 -.00000219  00000-0  00000-0 0  9997
2 39297   1.7276  30.4141 0183864 306.2242  52.5957  1.00369604 17366

Volg TITAN 3C TRANSTAGE DEB in realtime met AllMySat

Download on the App Store